QPF
0.21 0.27 0.25 0.19 0.10 0.09 0.10 0.08 0.10 0.11 0.09 0.07 0.05 0.03 0.03 0.03 0.03 0.03 0.03 0.03 0.04 0.03 0.02 0.02 0.03 0.02 0.03 0.05 0.03 0.02 0.03 0.03 0.04 0.05 0.04 0.03 0.04 0.06 0.08 0.16 0.14 0.06 0.05
0.17 0.22 0.21 0.16 0.11 0.10 0.09 0.09 0.11 0.11 0.10 0.08 0.05 0.04 0.03 0.03 0.03 0.04 0.03 0.03 0.04 0.05 0.03 0.03 0.02 0.03 0.03 0.04 0.03 0.02 0.03 0.03 0.05 0.06 0.05 0.03 0.02 0.03 0.07 0.14 0.09 0.04 0.07
0.15 0.15 0.14 0.12 0.12 0.10 0.09 0.09 0.11 0.10 0.10 0.08 0.06 0.04 0.03 0.03 0.04 0.03 0.03 0.04 0.06 0.06 0.03 0.02 0.02 0.02 0.02 0.02 0.03 0.03 0.02 0.03 0.05 0.06 0.05 0.04 0.03 0.03 0.10 0.08 0.05 0.07 0.07
0.12 0.13 0.09 0.10 0.11 0.08 0.07 0.08 0.09 0.08 0.07 0.07 0.05 0.03 0.03 0.04 0.04 0.04 0.03 0.04 0.05 0.05 0.02 0.01 0.02 0.02 0.02 0.03 0.03 0.03 0.03 0.04 0.05 0.03 0.03 0.02 0.02 0.04 0.06 0.03 0.04 0.07 0.07
0.09 0.09 0.07 0.09 0.09 0.08 0.07 0.08 0.09 0.09 0.07 0.07 0.05 0.03 0.03 0.03 0.04 0.03 0.02 0.03 0.04 0.04 0.02 0.02 0.03 0.03 0.03 0.04 0.03 0.03 0.03 0.02 0.03 0.02 0.01 0.02 0.02 0.03 0.04 0.04 0.04 0.05 0.05
0.08 0.10 0.09 0.09 0.10 0.09 0.07 0.08 0.10 0.09 0.08 0.07 0.05 0.04 0.03 0.03 0.04 0.03 0.03 0.03 0.03 0.04 0.04 0.02 0.02 0.03 0.02 0.03 0.04 0.04 0.02 0.01 0.02 0.01 0.01 0.02 0.02 0.03 0.03 0.04 0.05 0.04 0.04
0.10 0.13 0.12 0.12 0.12 0.09 0.08 0.08 0.11 0.11 0.08 0.07 0.06 0.05 0.04 0.03 0.04 0.02 0.02 0.03 0.02 0.03 0.05 0.04 0.03 0.03 0.02 0.03 0.03 0.03 0.02 0.01 0.02 0.01 0.01 0.02 0.02 0.03 0.04 0.03 0.04 0.04 0.04
0.11 0.12 0.14 0.14 0.11 0.10 0.09 0.10 0.11 0.12 0.10 0.07 0.05 0.04 0.04 0.04 0.04 0.03 0.03 0.02 0.01 0.02 0.03 0.05 0.05 0.03 0.02 0.03 0.03 0.03 0.03 0.01 0.01 0.01 0.00 0.01 0.02 0.03 0.04 0.04 0.03 0.03 0.04
0.11 0.12 0.14 0.13 0.11 0.13 0.13 0.13 0.12 0.11 0.09 0.07 0.05 0.04 0.04 0.04 0.04 0.03 0.03 0.02 0.02 0.03 0.05 0.06 0.07 0.04 0.02 0.03 0.04 0.04 0.04 0.02 0.01 0.01 0.01 0.01 0.01 0.02 0.03 0.03 0.03 0.03 0.03
0.10 0.12 0.14 0.15 0.15 0.16 0.17 0.17 0.13 0.11 0.08 0.07 0.04 0.04 0.05 0.04 0.03 0.03 0.03 0.04 0.05 0.07 0.07 0.07 0.08 0.07 0.04 0.03 0.04 0.05 0.05 0.03 0.02 0.01 0.01 0.01 0.01 0.02 0.03 0.03 0.03 0.04 0.03
0.13 0.14 0.08 0.10 0.13 0.14 0.17 0.20 0.16 0.12 0.08 0.08 0.06 0.06 0.05 0.04 0.04 0.03 0.04 0.06 0.08 0.10 0.10 0.08 0.08 0.05 0.03 0.02 0.03 0.04 0.04 0.04 0.02 0.03 0.02 0.01 0.01 0.03 0.04 0.05 0.03 0.03 0.03
0.18 0.16 0.08 0.07 0.08 0.11 0.20 0.26 0.22 0.14 0.09 0.08 0.08 0.07 0.06 0.05 0.06 0.03 0.04 0.06 0.09 0.09 0.09 0.07 0.05 0.03 0.02 0.03 0.03 0.03 0.03 0.02 0.02 0.02 0.02 0.02 0.02 0.03 0.04 0.03 0.02 0.02 0.02
0.12 0.12 0.10 0.08 0.06 0.10 0.19 0.21 0.20 0.14 0.10 0.08 0.08 0.07 0.07 0.05 0.04 0.03 0.04 0.05 0.07 0.06 0.05 0.06 0.05 0.02 0.03 0.04 0.04 0.03 0.03 0.01 0.02 0.02 0.02 0.02 0.02 0.03 0.04 0.03 0.02 0.01 0.02
0.05 0.05 0.08 0.11 0.11 0.15 0.17 0.15 0.18 0.14 0.10 0.07 0.07 0.07 0.07 0.07 0.05 0.04 0.05 0.06 0.06 0.06 0.05 0.05 0.06 0.03 0.03 0.02 0.02 0.02 0.03 0.02 0.01 0.02 0.03 0.02 0.03 0.04 0.04 0.04 0.04 0.03 0.03
0.02 0.03 0.05 0.07 0.10 0.14 0.15 0.14 0.15 0.12 0.08 0.06 0.07 0.06 0.05 0.06 0.05 0.05 0.04 0.05 0.04 0.05 0.06 0.06 0.05 0.04 0.04 0.02 0.02 0.03 0.03 0.03 0.01 0.02 0.02 0.02 0.03 0.03 0.04 0.05 0.06 0.06 0.06
0.02 0.03 0.04 0.05 0.05 0.06 0.05 0.06 0.08 0.07 0.08 0.07 0.06 0.04 0.04 0.05 0.06 0.05 0.05 0.06 0.05 0.05 0.06 0.05 0.04 0.05 0.04 0.03 0.03 0.03 0.02 0.03 0.04 0.02 0.02 0.02 0.03 0.03 0.04 0.05 0.07 0.09 0.07
0.01 0.03 0.04 0.04 0.04 0.03 0.02 0.02 0.02 0.05 0.08 0.11 0.07 0.04 0.03 0.03 0.06 0.07 0.07 0.06 0.05 0.04 0.04 0.04 0.03 0.04 0.04 0.04 0.04 0.04 0.03 0.02 0.03 0.03 0.02 0.02 0.03 0.03 0.03 0.04 0.06 0.07 0.07
0.01 0.02 0.03 0.03 0.03 0.04 0.04 0.03 0.02 0.02 0.04 0.06 0.05 0.03 0.02 0.02 0.04 0.05 0.05 0.05 0.05 0.04 0.04 0.04 0.04 0.05 0.05 0.05 0.05 0.04 0.03 0.03 0.03 0.04 0.03 0.03 0.04 0.03 0.03 0.02 0.03 0.04 0.05
0.01 0.01 0.01 0.02 0.02 0.03 0.05 0.05 0.03 0.04 0.06 0.03 0.03 0.02 0.02 0.02 0.03 0.05 0.06 0.07 0.04 0.04 0.06 0.04 0.05 0.06 0.05 0.06 0.04 0.03 0.02 0.02 0.02 0.03 0.02 0.02 0.02 0.02 0.03 0.03 0.02 0.03 0.05
0.01 0.00 0.01 0.02 0.03 0.03 0.04 0.04 0.04 0.03 0.03 0.03 0.03 0.04 0.03 0.03 0.04 0.05 0.05 0.04 0.03 0.04 0.07 0.08 0.08 0.08 0.08 0.09 0.08 0.03 0.01 0.01 0.01 0.02 0.01 0.01 0.01 0.01 0.02 0.03 0.05 0.03 0.04
0.00 0.00 0.01 0.01 0.02 0.02 0.03 0.05 0.05 0.04 0.03 0.03 0.03 0.04 0.04 0.03 0.04 0.05 0.05 0.06 0.04 0.05 0.06 0.08 0.08 0.06 0.07 0.07 0.07 0.04 0.01 0.01 0.01 0.02 0.02 0.01 0.01 0.02 0.01 0.02 0.03 0.04 0.04
0.00 0.00 0.00 0.01 0.01 0.01 0.02 0.03 0.04 0.04 0.02 0.03 0.04 0.04 0.03 0.02 0.03 0.03 0.06 0.05 0.05 0.06 0.06 0.08 0.07 0.06 0.05 0.05 0.06 0.05 0.04 0.04 0.02 0.01 0.02 0.02 0.02 0.03 0.01 0.01 0.01 0.02 0.02
0.00 0.00 0.00 0.00 0.00 0.01 0.01 0.01 0.02 0.03 0.03 0.04 0.04 0.04 0.03 0.02 0.02 0.02 0.03 0.04 0.05 0.04 0.05 0.07 0.08 0.08 0.07 0.05 0.05 0.06 0.06 0.06 0.05 0.02 0.02 0.02 0.03 0.03 0.03 0.01 0.01 0.01 0.02
0.00 0.01 0.01 0.00 0.00 0.01 0.01 0.01 0.02 0.03 0.03 0.04 0.03 0.02 0.02 0.01 0.01 0.01 0.02 0.03 0.04 0.03 0.06 0.07 0.08 0.07 0.08 0.08 0.08 0.06 0.06 0.06 0.07 0.05 0.03 0.02 0.03 0.03 0.03 0.02 0.01 0.02 0.02
0.00 0.00 0.01 0.01 0.00 0.01 0.01 0.01 0.03 0.03 0.03 0.02 0.02 0.01 0.01 0.02 0.02 0.02 0.02 0.03 0.04 0.05 0.07 0.10 0.10 0.07 0.06 0.06 0.07 0.07 0.06 0.06 0.06 0.07 0.06 0.04 0.03 0.02 0.03 0.02 0.02 0.02 0.02
0.01 0.01 0.01 0.01 0.01 0.01 0.01 0.01 0.01 0.02 0.02 0.02 0.03 0.01 0.01 0.01 0.01 0.01 0.02 0.04 0.03 0.04 0.08 0.10 0.08 0.07 0.05 0.04 0.06 0.07 0.07 0.07 0.07 0.07 0.06 0.06 0.05 0.02 0.01 0.01 0.01 0.01 0.01
MSLP
1010.59 1010.38 1010.29 1010.36 1010.59 1010.93 1011.31 1011.66 1011.94 1012.12 1012.23 1012.32 1012.44 1012.65 1012.95 1013.35 1013.80 1014.23 1014.60 1014.86 1015.00 1015.06 1015.07 1015.08 1015.14 1015.26 1015.43 1015.62 1015.79 1015.92 1015.98 1016.00 1016.00 1016.00 1016.05 1016.17 1016.34 1016.56 1016.78 1017.00 1017.17 1017.30 1017.40
1010.69 1010.56 1010.55 1010.69 1010.97 1011.32 1011.69 1012.01 1012.24 1012.38 1012.45 1012.52 1012.65 1012.88 1013.22 1013.65 1014.13 1014.57 1014.92 1015.16 1015.27 1015.29 1015.27 1015.27 1015.32 1015.43 1015.60 1015.78 1015.95 1016.06 1016.12 1016.12 1016.10 1016.10 1016.16 1016.28 1016.47 1016.70 1016.94 1017.16 1017.34 1017.48 1017.57
1010.74 1010.68 1010.75 1010.97 1011.30 1011.69 1012.07 1012.38 1012.58 1012.69 1012.74 1012.80 1012.92 1013.15 1013.50 1013.92 1014.37 1014.79 1015.10 1015.30 1015.38 1015.38 1015.36 1015.36 1015.43 1015.56 1015.75 1015.94 1016.10 1016.20 1016.23 1016.22 1016.18 1016.18 1016.23 1016.36 1016.56 1016.80 1017.06 1017.30 1017.49 1017.63 1017.73
1010.74 1010.76 1010.91 1011.20 1011.60 1012.03 1012.43 1012.74 1012.95 1013.05 1013.10 1013.15 1013.27 1013.49 1013.80 1014.19 1014.58 1014.94 1015.20 1015.35 1015.40 1015.40 1015.40 1015.43 1015.54 1015.70 1015.90 1016.10 1016.25 1016.33 1016.34 1016.30 1016.24 1016.22 1016.28 1016.41 1016.62 1016.88 1017.16 1017.41 1017.61 1017.77 1017.88
1010.73 1010.82 1011.04 1011.40 1011.84 1012.31 1012.74 1013.07 1013.30 1013.42 1013.48 1013.54 1013.66 1013.86 1014.14 1014.47 1014.80 1015.08 1015.28 1015.39 1015.43 1015.44 1015.46 1015.54 1015.68 1015.88 1016.10 1016.29 1016.42 1016.47 1016.44 1016.36 1016.28 1016.25 1016.30 1016.44 1016.67 1016.94 1017.23 1017.50 1017.73 1017.90 1018.04
1010.74 1010.88 1011.15 1011.55 1012.03 1012.53 1012.98 1013.34 1013.58 1013.73 1013.82 1013.91 1014.04 1014.23 1014.48 1014.76 1015.03 1015.25 1015.40 1015.48 1015.52 1015.54 1015.60 1015.72 1015.90 1016.12 1016.34 1016.51 1016.60 1016.60 1016.52 1016.40 1016.29 1016.24 1016.30 1016.45 1016.69 1016.99 1017.30 1017.58 1017.83 1018.02 1018.18
1010.80 1010.97 1011.27 1011.69 1012.18 1012.68 1013.14 1013.50 1013.76 1013.94 1014.07 1014.19 1014.34 1014.54 1014.78 1015.04 1015.27 1015.45 1015.57 1015.63 1015.67 1015.72 1015.81 1015.96 1016.17 1016.39 1016.59 1016.72 1016.76 1016.70 1016.57 1016.41 1016.28 1016.22 1016.27 1016.44 1016.70 1017.01 1017.33 1017.63 1017.89 1018.10 1018.28
1010.90 1011.09 1011.40 1011.81 1012.29 1012.76 1013.20 1013.55 1013.82 1014.01 1014.17 1014.34 1014.53 1014.75 1015.01 1015.26 1015.48 1015.65 1015.75 1015.82 1015.87 1015.94 1016.06 1016.23 1016.44 1016.65 1016.82 1016.90 1016.88 1016.77 1016.59 1016.39 1016.24 1016.18 1016.24 1016.42 1016.69 1017.01 1017.34 1017.65 1017.90 1018.12 1018.31
1011.06 1011.24 1011.54 1011.93 1012.36 1012.79 1013.17 1013.49 1013.75 1013.95 1014.14 1014.34 1014.57 1014.84 1015.12 1015.39 1015.62 1015.79 1015.91 1015.98 1016.05 1016.14 1016.27 1016.45 1016.65 1016.83 1016.96 1017.00 1016.94 1016.78 1016.57 1016.35 1016.19 1016.14 1016.22 1016.40 1016.68 1017.00 1017.33 1017.62 1017.86 1018.07 1018.25
1011.23 1011.41 1011.68 1012.02 1012.40 1012.77 1013.10 1013.37 1013.60 1013.80 1014.00 1014.23 1014.50 1014.80 1015.11 1015.41 1015.66 1015.84 1015.97 1016.06 1016.14 1016.24 1016.38 1016.55 1016.74 1016.91 1017.01 1017.02 1016.92 1016.74 1016.52 1016.30 1016.16 1016.12 1016.20 1016.40 1016.68 1016.99 1017.29 1017.56 1017.78 1017.96 1018.12
1011.38 1011.54 1011.79 1012.10 1012.42 1012.73 1013.00 1013.22 1013.41 1013.59 1013.80 1014.04 1014.34 1014.67 1015.00 1015.32 1015.58 1015.78 1015.91 1016.01 1016.09 1016.20 1016.34 1016.51 1016.69 1016.85 1016.94 1016.94 1016.85 1016.67 1016.46 1016.27 1016.14 1016.12 1016.22 1016.41 1016.68 1016.97 1017.25 1017.49 1017.67 1017.82 1017.95
1011.47 1011.63 1011.86 1012.13 1012.41 1012.67 1012.89 1013.06 1013.22 1013.39 1013.58 1013.83 1014.13 1014.46 1014.81 1015.12 1015.39 1015.59 1015.72 1015.82 1015.90 1016.01 1016.15 1016.33 1016.51 1016.67 1016.78 1016.80 1016.73 1016.59 1016.41 1016.25 1016.15 1016.15 1016.25 1016.44 1016.69 1016.96 1017.21 1017.41 1017.56 1017.68 1017.79
1011.49 1011.64 1011.86 1012.11 1012.36 1012.58 1012.77 1012.92 1013.05 1013.19 1013.37 1013.61 1013.89 1014.21 1014.54 1014.85 1015.10 1015.29 1015.41 1015.51 1015.59 1015.70 1015.85 1016.03 1016.24 1016.42 1016.56 1016.62 1016.60 1016.51 1016.38 1016.25 1016.18 1016.18 1016.27 1016.45 1016.68 1016.92 1017.14 1017.32 1017.46 1017.56 1017.65
1011.44 1011.57 1011.77 1012.01 1012.24 1012.45 1012.63 1012.76 1012.88 1013.01 1013.17 1013.38 1013.64 1013.93 1014.22 1014.50 1014.73 1014.90 1015.01 1015.10 1015.19 1015.31 1015.47 1015.68 1015.91 1016.14 1016.32 1016.44 1016.47 1016.43 1016.34 1016.24 1016.17 1016.17 1016.25 1016.39 1016.59 1016.81 1017.02 1017.20 1017.34 1017.44 1017.53
1011.34 1011.44 1011.62 1011.84 1012.06 1012.27 1012.44 1012.58 1012.70 1012.82 1012.95 1013.13 1013.35 1013.60 1013.85 1014.09 1014.29 1014.44 1014.55 1014.65 1014.75 1014.88 1015.07 1015.31 1015.58 1015.85 1016.09 1016.25 1016.33 1016.33 1016.27 1016.18 1016.10 1016.07 1016.11 1016.22 1016.39 1016.59 1016.80 1016.99 1017.16 1017.29 1017.40
1011.23 1011.29 1011.43 1011.62 1011.83 1012.04 1012.21 1012.36 1012.47 1012.58 1012.70 1012.84 1013.01 1013.21 1013.42 1013.63 1013.80 1013.94 1014.06 1014.17 1014.30 1014.46 1014.68 1014.95 1015.26 1015.57 1015.84 1016.04 1016.15 1016.17 1016.11 1016.00 1015.89 1015.81 1015.80 1015.86 1016.00 1016.19 1016.41 1016.64 1016.85 1017.03 1017.19
1011.17 1011.18 1011.26 1011.40 1011.59 1011.78 1011.95 1012.09 1012.21 1012.30 1012.39 1012.50 1012.63 1012.78 1012.94 1013.11 1013.28 1013.42 1013.55 1013.69 1013.85 1014.05 1014.30 1014.60 1014.93 1015.26 1015.55 1015.77 1015.89 1015.90 1015.82 1015.68 1015.52 1015.38 1015.31 1015.32 1015.42 1015.60 1015.84 1016.10 1016.37 1016.61 1016.83
1011.23 1011.15 1011.16 1011.25 1011.38 1011.54 1011.70 1011.83 1011.93 1012.01 1012.07 1012.13 1012.21 1012.31 1012.44 1012.58 1012.73 1012.89 1013.05 1013.22 1013.41 1013.64 1013.92 1014.23 1014.57 1014.91 1015.20 1015.41 1015.51 1015.51 1015.40 1015.21 1015.00 1014.80 1014.66 1014.61 1014.67 1014.83 1015.08 1015.38 1015.70 1016.00 1016.27
1011.42 1011.27 1011.20 1011.21 1011.28 1011.40 1011.52 1011.63 1011.71 1011.76 1011.78 1011.79 1011.82 1011.87 1011.96 1012.07 1012.21 1012.37 1012.55 1012.75 1012.97 1013.22 1013.51 1013.82 1014.15 1014.46 1014.73 1014.92 1015.01 1014.98 1014.84 1014.62 1014.36 1014.11 1013.91 1013.80 1013.82 1013.95 1014.19 1014.50 1014.85 1015.20 1015.52
1011.74 1011.53 1011.38 1011.31 1011.32 1011.38 1011.47 1011.55 1011.60 1011.61 1011.59 1011.55 1011.52 1011.52 1011.55 1011.63 1011.75 1011.91 1012.09 1012.29 1012.52 1012.77 1013.04 1013.33 1013.63 1013.91 1014.15 1014.31 1014.39 1014.35 1014.20 1013.97 1013.68 1013.39 1013.15 1013.00 1012.96 1013.05 1013.25 1013.55 1013.89 1014.25 1014.59
1012.16 1011.91 1011.70 1011.58 1011.53 1011.54 1011.59 1011.63 1011.65 1011.62 1011.56 1011.47 1011.38 1011.32 1011.29 1011.32 1011.40 1011.52 1011.68 1011.87 1012.07 1012.29 1012.52 1012.77 1013.02 1013.25 1013.46 1013.61 1013.68 1013.66 1013.53 1013.32 1013.04 1012.75 1012.49 1012.29 1012.20 1012.22 1012.36 1012.60 1012.90 1013.23 1013.55
1012.60 1012.35 1012.13 1011.97 1011.88 1011.86 1011.87 1011.89 1011.88 1011.83 1011.73 1011.59 1011.44 1011.30 1011.21 1011.17 1011.18 1011.25 1011.36 1011.50 1011.64 1011.80 1011.97 1012.15 1012.34 1012.53 1012.71 1012.85 1012.94 1012.96 1012.89 1012.73 1012.51 1012.24 1011.98 1011.76 1011.61 1011.55 1011.60 1011.75 1011.96 1012.22 1012.48
1013.00 1012.79 1012.58 1012.42 1012.32 1012.28 1012.29 1012.30 1012.28 1012.21 1012.07 1011.89 1011.69 1011.48 1011.32 1011.19 1011.13 1011.12 1011.15 1011.20 1011.27 1011.34 1011.43 1011.53 1011.64 1011.78 1011.94 1012.09 1012.22 1012.30 1012.32 1012.25 1012.10 1011.89 1011.65 1011.41 1011.21 1011.07 1011.01 1011.03 1011.13 1011.28 1011.45
1013.30 1013.16 1012.99 1012.85 1012.77 1012.75 1012.76 1012.78 1012.76 1012.69 1012.54 1012.34 1012.09 1011.83 1011.58 1011.38 1011.23 1011.12 1011.05 1011.00 1010.97 1010.95 1010.93 1010.94 1010.99 1011.08 1011.21 1011.38 1011.55 1011.71 1011.81 1011.85 1011.80 1011.66 1011.46 1011.22 1010.97 1010.75 1010.58 1010.47 1010.43 1010.45 1010.52
1013.45 1013.40 1013.30 1013.21 1013.16 1013.17 1013.20 1013.24 1013.25 1013.19 1013.05 1012.84 1012.56 1012.26 1011.96 1011.68 1011.44 1011.24 1011.07 1010.92 1010.78 1010.66 1010.54 1010.46 1010.43 1010.47 1010.57 1010.74 1010.95 1011.17 1011.36 1011.49 1011.53 1011.47 1011.32 1011.09 1010.81 1010.51 1010.24 1010.00 1009.83 1009.72 1009.68
1013.48 1013.52 1013.49 1013.46 1013.45 1013.48 1013.55 1013.62 1013.66 1013.63 1013.51 1013.30 1013.03 1012.70 1012.36 1012.03 1011.73 1011.45 1011.20 1010.96 1010.73 1010.50 1010.30 1010.13 1010.02 1009.99 1010.05 1010.20 1010.42 1010.68 1010.92 1011.12 1011.24 1011.24 1011.13 1010.91 1010.62 1010.27 1009.92 1009.59 1009.31 1009.09 1008.95
Thickness
5787 5787 5782 5781 5780 5779 5778 5776 5775 5774 5773 5771 5770 5769 5768 5767 5767 5766 5765 5765 5764 5764 5764 5763 5762 5762 5762 5761 5760 5760 5759 5759 5758 5757 5756 5755 5755 5754 5753 5752 5753 5752 5749
5790 5786 5781 5779 5778 5777 5776 5774 5773 5772 5771 5770 5768 5768 5767 5766 5765 5765 5764 5763 5763 5763 5763 5762 5761 5761 5760 5760 5759 5759 5758 5757 5757 5756 5756 5755 5754 5753 5752 5752 5752 5751 5748
5789 5785 5780 5778 5776 5775 5774 5773 5771 5770 5769 5768 5767 5766 5765 5765 5764 5763 5763 5762 5762 5762 5761 5760 5760 5760 5759 5759 5758 5758 5757 5757 5756 5756 5757 5759 5755 5752 5751 5750 5750 5748 5747
5789 5785 5781 5776 5775 5773 5772 5771 5770 5769 5768 5767 5765 5765 5764 5763 5762 5762 5761 5761 5760 5760 5760 5759 5759 5758 5758 5758 5757 5757 5756 5756 5756 5758 5761 5761 5758 5752 5751 5750 5749 5747 5746
5788 5784 5779 5775 5773 5772 5771 5770 5769 5768 5766 5765 5764 5763 5762 5762 5761 5760 5760 5759 5759 5758 5758 5758 5757 5757 5757 5756 5756 5756 5755 5755 5756 5759 5761 5759 5757 5751 5750 5749 5748 5747 5745
5786 5784 5778 5774 5772 5771 5769 5769 5768 5766 5765 5764 5763 5762 5761 5760 5760 5759 5758 5758 5757 5757 5756 5756 5756 5756 5755 5755 5755 5755 5755 5755 5757 5761 5760 5759 5757 5751 5749 5748 5747 5746 5745
5786 5783 5778 5772 5771 5769 5767 5767 5766 5765 5764 5763 5762 5761 5760 5759 5759 5758 5757 5757 5756 5756 5755 5755 5755 5755 5754 5754 5754 5754 5754 5755 5760 5761 5759 5758 5754 5750 5749 5748 5746 5745 5744
5785 5782 5776 5771 5770 5768 5767 5766 5765 5764 5763 5762 5761 5760 5759 5758 5758 5757 5756 5756 5755 5754 5754 5754 5754 5754 5753 5753 5753 5753 5754 5755 5759 5761 5760 5758 5752 5750 5748 5747 5746 5744 5743
5784 5782 5778 5774 5770 5767 5766 5765 5764 5763 5762 5761 5760 5759 5758 5758 5757 5756 5756 5755 5755 5754 5753 5753 5753 5753 5753 5753 5753 5753 5754 5755 5760 5760 5760 5757 5751 5749 5748 5746 5745 5744 5742
5782 5781 5778 5777 5774 5771 5768 5765 5764 5762 5761 5760 5759 5758 5758 5757 5757 5756 5756 5755 5754 5753 5753 5752 5752 5752 5753 5753 5753 5753 5754 5755 5760 5760 5760 5755 5750 5748 5747 5746 5745 5743 5742
5778 5779 5779 5777 5775 5773 5771 5767 5764 5762 5760 5759 5759 5758 5758 5761 5761 5758 5756 5754 5753 5753 5752 5752 5752 5752 5753 5753 5754 5754 5755 5760 5761 5760 5758 5753 5750 5748 5747 5746 5744 5743 5742
5776 5778 5778 5777 5775 5774 5772 5768 5766 5765 5762 5762 5762 5761 5761 5760 5760 5760 5755 5754 5753 5753 5752 5752 5753 5753 5755 5759 5757 5756 5760 5761 5761 5760 5757 5752 5750 5748 5747 5746 5745 5743 5742
5779 5777 5778 5777 5775 5774 5771 5769 5767 5766 5764 5763 5762 5761 5761 5761 5761 5761 5759 5757 5756 5755 5756 5755 5757 5759 5760 5760 5761 5761 5761 5762 5762 5761 5757 5752 5750 5748 5747 5746 5745 5744 5742
5779 5777 5778 5776 5773 5771 5771 5769 5767 5767 5766 5765 5762 5762 5762 5762 5761 5761 5759 5760 5759 5759 5757 5759 5758 5759 5759 5760 5761 5761 5761 5762 5761 5760 5756 5753 5751 5749 5748 5747 5746 5744 5743
5780 5778 5777 5775 5771 5768 5767 5768 5768 5766 5767 5765 5762 5762 5762 5762 5762 5761 5760 5759 5761 5760 5759 5758 5759 5758 5759 5760 5762 5762 5761 5760 5760 5760 5758 5754 5752 5750 5749 5748 5747 5745 5744
5780 5778 5777 5774 5771 5768 5767 5767 5766 5767 5764 5765 5764 5763 5762 5763 5762 5761 5761 5759 5760 5760 5760 5759 5760 5759 5760 5761 5762 5762 5761 5762 5760 5759 5760 5757 5753 5752 5750 5749 5748 5746 5745
5782 5780 5777 5775 5773 5769 5768 5768 5768 5767 5767 5765 5765 5763 5762 5763 5762 5761 5762 5761 5762 5761 5760 5760 5760 5760 5761 5762 5762 5762 5762 5761 5761 5759 5759 5759 5758 5754 5752 5750 5749 5748 5747
5784 5780 5778 5778 5775 5771 5769 5768 5769 5768 5767 5766 5765 5764 5763 5763 5762 5761 5763 5764 5762 5763 5762 5762 5761 5761 5761 5761 5761 5762 5763 5762 5761 5760 5760 5759 5759 5759 5756 5753 5751 5749 5748
5786 5782 5779 5778 5776 5774 5771 5769 5769 5767 5767 5767 5766 5766 5765 5764 5764 5763 5764 5764 5763 5764 5764 5764 5764 5761 5760 5759 5761 5762 5763 5763 5762 5762 5762 5761 5760 5759 5759 5755 5753 5751 5749
5788 5784 5781 5778 5776 5774 5772 5770 5769 5768 5768 5768 5768 5766 5765 5766 5765 5765 5766 5765 5765 5765 5764 5763 5760 5759 5760 5760 5763 5763 5764 5765 5764 5764 5763 5763 5762 5761 5760 5758 5756 5754 5751
5790 5786 5782 5779 5777 5775 5773 5771 5769 5768 5769 5770 5770 5768 5766 5766 5766 5765 5768 5766 5765 5765 5763 5763 5761 5760 5760 5761 5759 5760 5764 5766 5765 5764 5764 5763 5763 5762 5761 5759 5758 5757 5755
5793 5789 5785 5781 5779 5777 5775 5773 5771 5771 5771 5772 5771 5769 5768 5768 5767 5768 5767 5767 5767 5765 5762 5762 5760 5760 5761 5761 5758 5755 5755 5758 5761 5766 5764 5763 5763 5764 5763 5761 5759 5756 5756
5796 5793 5791 5785 5783 5779 5777 5775 5773 5770 5770 5771 5770 5770 5769 5768 5768 5768 5768 5768 5767 5767 5766 5762 5760 5758 5757 5760 5760 5755 5750 5750 5756 5761 5761 5762 5762 5762 5763 5761 5760 5757 5756
5801 5798 5794 5789 5785 5782 5779 5777 5773 5770 5768 5770 5771 5772 5770 5769 5769 5769 5768 5767 5766 5767 5765 5764 5764 5761 5757 5757 5758 5758 5757 5756 5750 5750 5758 5762 5761 5760 5761 5762 5761 5758 5756
5807 5802 5797 5792 5787 5784 5781 5778 5774 5773 5772 5773 5773 5771 5769 5770 5769 5769 5768 5767 5766 5766 5765 5763 5761 5760 5759 5757 5757 5756 5755 5754 5754 5749 5748 5753 5758 5761 5761 5760 5760 5759 5756
5809 5805 5800 5793 5788 5786 5782 5780 5776 5774 5772 5771 5770 5770 5770 5772 5771 5770 5768 5767 5766 5766 5764 5762 5761 5760 5759 5757 5756 5756 5755 5753 5752 5751 5748 5748 5751 5757 5759 5758 5758 5757 5755